map of TWU home
Great Circle Mapper logo
TWU - Airport
Location
City:  Tawau, Sabah, Malaysia
ICAO:WBKW
IATA:TWU

Details
Type:Airport (Aerodrome, Airfield)
Use:Public/Civil
Latitude:418'48"N (4.313369)
Longitude:11807'19"E (118.121953)
Datum:WGS 1984
Elevation:57 ft (17 m)
Variation:0.15W (WMM2015 magnetic declination)
-0.09 annual change
Runways:1
Longest:8800 × 155 ft (2682 × 47 m), paved

Time
Time Zone:UTC+8
Local Time:

Weather
METAR:WBKW 252300Z 25001KT 9999 -RA FEW010 SCT030 BKN140 24/23 Q1010
TAF:WBKW 252300Z 2600/2624 18008KT 9999 FEW017 BKN140 BKN280
TEMPO 2600/2603 5000 TSRA FEW010 FEW016CB SCT030
BECMG 2611/2613 33005KT

Related Locations
Nearby:
Farthest:CIZ: 12362 mi / 19895 km
Coari, AM, BR

Find:

   beyond  
but within

Other Information
Maps:
NOTAMs:
Links:
Sources:

  
flag of Malaysia
flag of Sabah
  

Sectional Chart

Flight Planning
at skyvector.com

Satellite Image

Google Maps Satellite view

 

Copyright © 2004-2016 Karl L. Swartz. All rights reserved.
The Great Circle Mapper name and logo are trademarks of the Great Circle Mapper.
All other trademarks mentioned herein belong to their respective owners.
Please see credits for attibutions and further copyright information.

  Follow gcmap on Facebook Follow gcmap on Twitter Follow gcmap on Google+ GCmap on LinkedIn

hCard Microformat

Geo Microformat